Regional Weather Roundup
Issued by NWS Northern Indiana

Home | Current Version | Previous Version | Text Only | Print | Product List | Glossary Off
Versions: 1 2 3 4 5 6 7 8 9 10 11 12 13 14 15 16 17 18 19 20 21 22 23 24 25 26 27 28 29 30 31 32 33 34 35 36 37 38 39 40 41 42 43 44 45 46 47 48 49 50

517
ASUS43 KIWX 290710
RWRIWX

KIWX WEATHER ROUNDUP
NATIONAL WEATHER SERVICE NORTHERN INDIANA
300 AM EDT SUN MAY 29 2016

NOTE: "FAIR" INDICATES FEW OR NO CLOUDS BELOW 12,000 FEET WITH NO
SIGNIFICANT WEATHER AND/OR OBSTRUCTIONS TO VISIBILITY.

* THESE STATIONS ARE NOT UNDER NWS QUALITY CONTROL. THEY ALSO MAY NOT
  REPORT WEATHER SUCH AS PRECIPITATION OR FOG.

INZ001>027-290800-
NORTHERN INDIANA

CITY           SKY/WX    TMP DP  RH WIND       PRES   REMARKS
GARY*          CLOUDY    69  63  80 CALM      29.96F
VALPARAISO     CLOUDY    67  56  67 S6        29.99F
MICHIGAN CITY* PTCLDY    68  57  68 SW6       29.99F
LAPORTE*       PTCLDY    70  58  66 SW7       30.00F
KNOX*          PTCLDY    70  52  52 SW8       30.00F
SOUTH BEND     PTCLDY    70  64  81 SW10      30.01R
GOSHEN         CLOUDY    71  64  78 S14       30.01F
MONTICELLO*    PTCLDY    69  54  59 W5        30.03S
LOGANSPORT*    MOCLDY    68  64  88 S5        30.04S
ROCHESTER*     HAZE      72  68  88 S7        30.04R VSB 3/4
WARSAW*        CLOUDY    70  64  83 S7        30.03S
ANGOLA*          N/A     70  63  78 S7        30.04F
FORT WAYNE     CLOUDY    69  65  86 S7        30.05S
HUNTINGTON*    CLOUDY    69  66  88 S3        30.05S
PERU/GRISSOM   MOCLDY    71  67  87 S7        30.03F
MARION*        MOCLDY    68  65  89 S6        30.07R

$$
INZ028>050-290800-
CENTRAL INDIANA

CITY           SKY/WX    TMP DP  RH WIND       PRES   REMARKS
LAFAYETTE      MOCLDY    68  60  75 W7        30.04R
KOKOMO*        CLOUDY    68  63  83 S6        30.05S
MUNCIE*        PTCLDY    71  65  81 S7        30.06S
INDIANAPOLIS   PTCLDY    68  65  90 SE6       30.04R

$$
MIZ043>046-050>051-056>058-064>065-071>073-077>080-290800-
SOUTHWEST LOWER MICHIGAN

CITY           SKY/WX    TMP DP  RH WIND       PRES   REMARKS
BATTLE CREEK   CLOUDY    70  64  81 S8        30.01F
BENTON HARBOR  MOCLDY    67  61  81 SW5       29.98F
COLDWATER*     CLOUDY    72  64  75 S3        30.02F
HILLSDALE*     CLOUDY    69  64  84 S3        30.05F
HOLLAND        PTCLDY    64  58  80 SE5       29.98F
GRAND RAPIDS   PTCLDY    74  64  71 SW12      29.98F
KALAMAZOO      CLOUDY    70  63  78 S3        30.00F
STURGIS*       CLOUDY    70  64  81 S9        30.01F
THREE RIVERS*  FAIR      72  64  76 S8        30.01F

$$
OHZ001>008-015>018-024>025-290800-
NORTHWEST OHIO

CITY           SKY/WX    TMP DP  RH WIND       PRES   REMARKS
WAUSEON*         N/A     68  68 100 S8        30.06S
DEFIANCE       MOCLDY    70  63  78 S5        30.06S
FINDLAY        CLOUDY    66  60  81 S7        30.07S
TOLEDO EXPRESS PTCLDY    66  62  87 SW6       30.05F
TOLEDO METCALF CLEAR     67  60  78 S6        30.07S
LIMA           CLOUDY    68  63  84 S7        30.08S

$$
AND FOR LAKE MICHIGAN COASTAL AND OPEN LAKE BUOY OBSERVATIONS

STATION/POSITION TEMP    WIND        PRES    VSBY  WAVE
                 AIR SEA DIR/SP/G                  HT/PER
                 (F)     (DEG/KT/KT) (MB)    (MI)  (FT/S)
CALUMET HARBOR    71     200/  9/ 13 1015.0R
MICHIGAN CITY     72     190/ 12/ 13   N/A
BURNS HARBOR      72     230/ 13/ 20 1016.3R
SAINT JOSEPH      69     160/  3/  6 1015.2F
SOUTH LAKE BUOY   54 50  170/  8/ 10 1013.7S         1/ 4
4 MI NW BRIDGMAN  63 61  240/  4/  6   N/A           2/ 3
MICHIGAN CITY     62 56  220/  8/ 10   N/A           1/ 2

$$
&&




USA.gov is the U.S. government's official web portal to all federal, state and local government web resources and services.